13P/Olbers (2024)

Japanese version
Home page
Updated on December 7, 2023

---------------------------------------------------------------------

* Profile

Recovery Date August 13, 2023
Magnitude 21.6 mag
Recoverer A. Hale (Las Cumbres Observatory)

* Pictures

* Orbital Elements

Epoch 2023 Sept. 13.0 TT = JDT 2460200.5                                        
T 2024 June 29.95221 TT                                 Rudenko                 
q   1.1752145            (2000.0)            P               Q                  
n   0.01418071     Peri.   64.39369     -0.60889245     -0.37158966             
a  16.9045642      Node    85.87459     +0.18579592     -0.92572696             
e   0.9304795      Incl.   44.64053     +0.77118731     -0.07036143             
P  69.5                                                                         
>From 26 observations 1956 Feb. 4-2023 Aug. 27, mean residual 0".6.              
     Nongravitational parameters A1 = -0.91, A2 = -1.1292.                      

* Finding Charts

* Magnitudes Graph

        m1 = 4.5 + 5 log d + 22.0 log r  [ ,0]  (             - 2024 June 29)
        m1 = 5.0 + 5 log d + 15.0 log r  [0, ]  (2024 June 29 -             )

---------------------------------------------------------------------

The orbital elements are published on M.P.E.C. 2023-Q150.
The charts are made with StellaNavigator Ver.10 (AstroArts).
The magnitudes graphs are made with Comet for Windows.

---------------------------------------------------------------------

Copyright(C) Seiichi Yoshida (comet@aerith.net). All rights reserved.